Regional Weather Roundup
Issued by NWS

Home | Current Version | Previous Version | Text Only | Print | Product List | Glossary Off
Versions: 1 2 3 4 5 6 7 8 9 10 11 12 13 14 15 16 17 18 19 20 21 22 23 24 25 26 27 28 29 30 31 32 33 34 35 36 37 38 39 40 41 42 43 44 45 46 47 48 49 50

343
ASUS45 KBOU 200210
RWRCO

WEATHER ROUNDUP FOR COLORADO
NATIONAL WEATHER SERVICE DENVER/BOULDER CO
700 PM MST SUN NOV 19 2017

NOTE: "FAIR" INDICATES FEW OR NO CLOUDS BELOW 12000 FEET WITH NO
SIGNIFICANT WEATHER AND/OR OBSTRUCTIONS TO VISIBILITY.

COZ001>005-013-030-031-200300-
...NORTHWEST COLORADO...

CITY           SKY/WX    TMP DP  RH WIND       PRES   REMARKS
CRAIG          FAIR      20  14  77 CALM      30.16R
HAYDEN         FAIR      29  19  66 E7        30.16R WCI  22
MEEKER         FAIR      26  18  71 N3        30.14S
RABBIT EARS PA FAIR      21  10  63 W7        30.17S WCI  13
STEAMBOAT SPGS FAIR      26  18  74 CALM      30.15R
WALDEN         FAIR      30  10  43 SW8       30.13S WCI  23
$$

COZ006>008-011-200300-
...WEST CENTRAL VALLEYS...

CITY           SKY/WX    TMP DP  RH WIND       PRES   REMARKS
GRAND JUNCTION FAIR      29  13  51 CALM      30.19R
MONTROSE       FAIR      31  20  63 S8        30.21S WCI  23
EAGLE          FAIR      30  21  69 E5        30.19S WCI  25
RIFLE          FAIR      30  24  78 CALM      30.19S
DELTA          FAIR      32  17  53 NE5       30.20R WCI  27
NUCLA          FAIR      32   7  34 E9        30.22R WCI  24
$$

COZ017>023-064>068-200300-
...SOUTHWEST COLORADO...

CITY           SKY/WX    TMP DP  RH WIND       PRES   REMARKS
DURANGO        FAIR      33  13  43 N8        30.18S WCI  26
CORTEZ         FAIR      24  13  62 E7        30.21R WCI  16
PAGOSA SPRINGS FAIR      32  13  46 N5        30.21S WCI  27
TELLURIDE      FAIR      33   4  30 SE7       30.25S WCI  26
WOLF CREEK PAS NOT AVBL
$$

COZ009-010-012-014-032>034-037-058>063-200300-
...CENTRAL COLORADO...

CITY           SKY/WX    TMP DP  RH WIND       PRES   REMARKS
ASPEN          FAIR      24  17  74 SW8       30.18R WCI  15
BUENA VISTA    FAIR      33   6  32 NW6       30.15S WCI  28
COPPER MTN     FAIR      23   0  36 MISG      30.22F
BERTHOUD PASS  FAIR      18   7  62 NW39G46   30.13F WCI  -4
COTTONWOOD PAS FAIR      37 -11  12 NW9G18    30.18F
GUNNISON       FAIR      23  17  78 N3        30.24R
KREMMLING      FAIR      30  16  55 E5        30.14S WCI  25
LEADVILLE      FAIR      24   0  35 VRB5      30.17S WCI  18
MONARCH PASS   FAIR      21   3  45 W29       30.33S WCI   3
SALIDA         FAIR      42  -1  16 W14G20    30.20S
SUNLIGHT       FAIR      21   3  45 SW13G21   30.25F WCI   9
WILKERSON PASS MOCLDY    27  -8  22 W10G22    30.19F WCI  17
$$

COZ069>075-200300-
...SAN LUIS VALLEY/SANGRE DE CRISTO MOUNTAINS...

CITY           SKY/WX    TMP DP  RH WIND       PRES   REMARKS
ALAMOSA        FAIR      32   9  38 NW3       30.17R
DEL NORTE      FAIR      29   7  38 W10       30.19S WCI  20
LA VETA PASS   FAIR      28   1  31 SW26G37     N/A  WCI  13
SAGUACHE       FAIR      23   1  39 N3        30.19S
$$

COZ035-036-038>040-200300-
...NORTHERN COLORADO FRONT RANGE...

CITY           SKY/WX    TMP DP  RH WIND       PRES   REMARKS
DENVER INTL AP MOCLDY    51   1  13 W10       29.97F
DMNS CITY PARK   N/A     53  -1  11 W3G14     29.98F
AURORA         MOCLDY    44  13  28 S8        29.98F
FRONT RANGE AP MOCLDY    48  10  21 SW10      29.98F
ERIE MUNI ARPT FAIR      52  -1  11 CALM      30.02F
BOULDER MUN AP FAIR      52   5  15 CALM      29.98S
CENTENNIAL     MOCLDY    45  15  30 SE6       30.00S
BROOMFIELD     MOCLDY    50   0  12 W8        30.01S
FORT COLLINS   FAIR      43  18  36 VRB3      29.96R
LONGMONT       FAIR      53   6  15 W9        29.97F
$$

COZ041-046-047-076>085-087-088-200300-
...PIKES PEAK/PALMER DIVIDE AND SOUTHERN FOOTHILLS...

CITY           SKY/WX    TMP DP  RH WIND       PRES   REMARKS
COLO. SPRINGS  MOCLDY    50  13  22 NW5       30.04S
A. F. ACADEMY  FAIR      46  -1  14 NE7       30.03F
SCHRIEVER AFB  MOCLDY    47   6  18 W5        30.03S
CHEYENNE MTN   MOCLDY    46   3  17 CALM      30.00S
ELLICOTT       NOT AVBL
FALCON         FAIR      44   2  17 W8        30.05F
FORT CARSON    FAIR      41  18  38 NW6       30.00F
LIMON          FAIR      26  16  65 N7        30.00S WCI  18
MONUMENT HILL  FAIR      37  10  32 SW5       30.06S
CANON CITY     FAIR      46  10  23 W8        30.03S
WALSENBURG     FAIR      46  10  23 W10       30.05S
TRINIDAD       FAIR      38  19  46 NW8       30.03F
$$

COZ042>045-048>051-090-091-200300-
...NORTHEAST COLORADO...

CITY           SKY/WX    TMP DP  RH WIND       PRES   REMARKS
GREELEY ARPT   FAIR      35  23  61 N7        29.95F WCI  29
AKRON          FAIR      43  10  26 SW10      29.94S
BURLINGTON     FAIR      38  15  39 S13       29.97F
WRAY           NOT AVBL
YUMA           FAIR      32  18  55 S9        29.93F WCI  24
STERLING       FAIR      32  21  64 SW7       29.91F WCI  26
HOLYOKE        FAIR      37  14  38 SW10      29.92S
FORT MORGAN    FAIR      46  15  29 CALM      29.95F
$$

COZ086-089-092>099-200300-
...SOUTHEAST COLORADO...

CITY           SKY/WX    TMP DP  RH WIND       PRES   REMARKS
PUEBLO         FAIR      49  11  21 N3        29.98S
LA JUNTA       FAIR      43  20  39 E6        29.96F
LAMAR          FAIR      37  12  35 CALM      29.96S
SPRINGFIELD      N/A     37  16  42 S9        30.01S
$$




USA.gov is the U.S. government's official web portal to all federal, state and local government web resources and services.